Location: Buckeye Ditch
(40.9104°N, 122.9517°W)
Time: 19:36:42
(UTC+00:00)

BlueWalker 3 - Pass Details

Date: 30 June 2024
Orbit: 480 x 491 km, 53.2° (Epoch: 24 July)

Event Time Altitude Azimuth Distance (km) Brightness Sun altitude
Rises 05:50:02 0° 313° (NW) 2,543 7.1 -17.6°
Reaches altitude 10° 05:52:46 10° 334° (NNW) 1,660 5.8 -17.9°
Maximum altitude 05:55:21 18° 18° (NNE) 1,258 4.4 -18.2°
Drops below altitude 10° 05:57:56 10° 62° (ENE) 1,655 4.5 -18.4°
Enters shadow 05:58:43 - 70° (ENE) 1,882 4.7 -18.5°
